�������l�o���
Date,Time,MP-1(��Sv/h),MP-2(��Sv/h),MP-3(��Sv/h),MP-4(��Sv/h),MP-5(��Sv/h),MP-6(��Sv/h),MP-7(��Sv/h),MP-8(��Sv/h),����,����(m/s),���J
2019/08/31,00:00,0.745,1.043,0.727,1.298,0.951,0.423,0.739,0.698,��,2.6,��
2019/08/31,00:10,0.746,1.045,0.725,1.299,0.952,0.423,0.737,0.697,��,2.8,��
2019/08/31,00:20,0.748,1.042,0.727,1.300,0.951,0.422,0.738,0.697,���k��,3.4,��
2019/08/31,00:30,0.747,1.042,0.727,1.299,0.951,0.423,0.740,0.698,�k��,3.4,��
2019/08/31,00:40,0.747,1.044,0.727,1.298,0.950,0.424,0.738,0.697,���k��,3.8,�L
2019/08/31,00:50,0.745,1.041,0.726,1.296,0.950,0.424,0.738,0.697,���k��,5.9,��
2019/08/31,01:00,0.744,1.045,0.727,1.299,0.952,0.423,0.738,0.695,���k��,8.1,��
2019/08/31,01:10,0.745,1.042,0.725,1.298,0.948,0.424,0.738,0.698,��,6.9,��
2019/08/31,01:20,0.744,1.044,0.728,1.299,0.951,0.423,0.739,0.698,��,5.8,��
2019/08/31,01:30,0.745,1.043,0.728,1.296,0.949,0.423,0.738,0.699,���k��,5.5,��
2019/08/31,01:40,0.744,1.042,0.728,1.296,0.953,0.423,0.739,0.698,���k��,4.6,��
2019/08/31,01:50,0.746,1.042,0.726,1.297,0.948,0.423,0.738,0.698,�k��,4.1,��
2019/08/31,02:00,0.746,1.044,0.726,1.298,0.948,0.423,0.738,0.697,���k��,4.9,��
2019/08/31,02:10,0.746,1.046,0.727,1.299,0.951,0.421,0.737,0.696,���k��,4.7,�L
2019/08/31,02:20,0.746,1.043,0.726,1.298,0.949,0.423,0.737,0.696,���k��,4.9,�L
2019/08/31,02:30,0.746,1.043,0.727,1.298,0.950,0.422,0.739,0.698,���k��,3.1,�L
2019/08/31,02:40,0.745,1.041,0.728,1.297,0.948,0.423,0.737,0.698,���k��,3.8,�L
2019/08/31,02:50,0.747,1.044,0.728,1.300,0.951,0.424,0.738,0.698,���k��,2.3,�L
2019/08/31,03:00,0.745,1.042,0.728,1.297,0.952,0.423,0.739,0.699,�k��,2.8,�L
2019/08/31,03:10,0.746,1.044,0.727,1.299,0.948,0.423,0.740,0.697,���k��,2.6,�L
2019/08/31,03:20,0.743,1.043,0.726,1.298,0.950,0.423,0.737,0.698,��,3.2,�L
2019/08/31,03:30,0.745,1.043,0.727,1.301,0.950,0.424,0.739,0.697,�k��,7.3,�L
2019/08/31,03:40,0.742,1.043,0.727,1.298,0.951,0.422,0.736,0.698,���k��,6.8,��
2019/08/31,03:50,0.744,1.045,0.727,1.298,0.949,0.425,0.738,0.698,�k��,4.3,�L
2019/08/31,04:00,0.748,1.043,0.729,1.297,0.951,0.424,0.738,0.697,�k�k��,3.5,�L
2019/08/31,04:10,0.744,1.044,0.726,1.300,0.950,0.423,0.738,0.698,�k��,3.2,��
2019/08/31,04:20,0.745,1.043,0.727,1.298,0.949,0.423,0.738,0.698,�k��,4.5,�L
2019/08/31,04:30,0.746,1.043,0.727,1.300,0.949,0.422,0.739,0.699,���k��,4.6,�L
2019/08/31,04:40,0.746,1.045,0.726,1.299,0.949,0.423,0.737,0.698,���k��,5.3,��
2019/08/31,04:50,0.745,1.043,0.726,1.297,0.949,0.423,0.738,0.698,���k��,4.0,��
2019/08/31,05:00,0.746,1.044,0.728,1.297,0.950,0.423,0.736,0.698,�k��,3.3,�L
2019/08/31,05:10,0.746,1.043,0.728,1.298,0.949,0.422,0.739,0.698,�k�k��,3.2,��
2019/08/31,05:20,0.748,1.045,0.729,1.299,0.949,0.422,0.739,0.697,�k�k��,3.0,��
2019/08/31,05:30,0.744,1.044,0.726,1.301,0.951,0.423,0.736,0.696,�k��,2.9,��
2019/08/31,05:40,0.747,1.042,0.728,1.299,0.952,0.423,0.739,0.698,�k�k��,2.5,��
2019/08/31,05:50,0.745,1.043,0.728,1.297,0.949,0.423,0.737,0.698,�k�k��,2.5,��
2019/08/31,06:00,0.745,1.045,0.729,1.300,0.950,0.424,0.740,0.699,�k��,2.0,��
2019/08/31,06:10,0.746,1.043,0.728,1.299,0.951,0.423,0.739,0.697,�k��,2.3,��
2019/08/31,06:20,0.746,1.043,0.728,1.300,0.950,0.422,0.736,0.699,���k��,3.7,��
2019/08/31,06:30,0.745,1.045,0.727,1.297,0.949,0.424,0.738,0.698,���k��,3.9,��
2019/08/31,06:40,0.744,1.042,0.727,1.299,0.950,0.424,0.740,0.697,���k��,3.8,��
2019/08/31,06:50,0.746,1.046,0.726,1.298,0.949,0.424,0.738,0.699,��,3.8,��
2019/08/31,07:00,0.746,1.043,0.726,1.298,0.949,0.423,0.737,0.698,���k��,2.8,�L
2019/08/31,07:10,0.747,1.042,0.728,1.301,0.949,0.424,0.739,0.698,���k��,2.6,�L
2019/08/31,07:20,0.744,1.042,0.726,1.299,0.951,0.423,0.739,0.698,��,4.0,�L
2019/08/31,07:30,0.743,1.044,0.727,1.302,0.951,0.421,0.739,0.697,���k��,4.0,��
2019/08/31,07:40,0.745,1.043,0.728,1.300,0.951,0.421,0.740,0.697,��,3.1,��
2019/08/31,07:50,0.747,1.044,0.726,1.301,0.951,0.421,0.740,0.698,��,2.0,��
2019/08/31,08:00,0.744,1.043,0.726,1.300,0.950,0.421,0.736,0.698,��,0.8,��
2019/08/31,08:10,0.747,1.043,0.725,1.302,0.952,0.422,0.737,0.699,���쐼,1.1,��
2019/08/31,08:20,0.744,1.043,0.728,1.300,0.949,0.422,0.738,0.695,���k��,0.9,��
2019/08/31,08:30,0.743,1.041,0.728,1.299,0.950,0.422,0.737,0.696,��,0.9,��
2019/08/31,08:40,0.747,1.041,0.726,1.299,0.950,0.421,0.740,0.698,���쐼,0.9,��
2019/08/31,08:50,0.745,1.044,0.727,1.299,0.951,0.421,0.738,0.698,�쐼,1.7,��
2019/08/31,09:00,0.745,1.042,0.726,1.301,0.953,0.423,0.738,0.696,��쐼,1.2,��
2019/08/31,09:10,0.747,1.044,0.727,1.299,0.957,0.422,0.739,0.695,�쐼,1.4,��
2019/08/31,09:20,0.748,1.040,0.725,1.299,0.951,0.423,0.739,0.695,��,1.4,��
2019/08/31,09:30,0.747,1.041,0.726,1.303,0.953,0.424,0.737,0.695,��쐼,1.7,��
2019/08/31,09:40,0.749,1.036,0.726,1.305,0.952,0.423,0.738,0.696,��,1.9,��
2019/08/31,09:50,0.749,1.037,0.727,1.301,0.953,0.424,0.738,0.696,��쓌,2.2,��
2019/08/31,10:00,0.747,1.039,0.724,1.304,0.954,0.424,0.741,0.695,��쓌,2.5,��
2019/08/31,10:10,0.749,1.042,0.723,1.302,0.952,0.423,0.740,0.695,�쓌,3.2,��
2019/08/31,10:20,0.749,1.041,0.727,1.304,0.954,0.423,0.740,0.696,�쓌,3.6,��
2019/08/31,10:30,0.748,1.045,0.729,1.302,0.954,0.425,0.740,0.697,��쓌,4.2,��
2019/08/31,10:40,0.748,1.046,0.727,1.302,0.953,0.424,0.740,0.696,��쓌,4.0,��
2019/08/31,10:50,0.750,1.044,0.729,1.304,0.958,0.426,0.741,0.697,��쓌,4.0,��
2019/08/31,11:00,0.748,1.044,0.729,1.303,0.956,0.425,0.740,0.698,�쓌,5.1,��
2019/08/31,11:10,0.749,1.043,0.726,1.302,0.958,0.425,0.741,0.697,��쓌,5.5,��
2019/08/31,11:20,0.748,1.045,0.730,1.305,0.954,0.425,0.740,0.697,��쓌,5.2,��
2019/08/31,11:30,0.748,1.045,0.729,1.302,0.957,0.426,0.741,0.696,�쓌,5.0,��
2019/08/31,11:40,0.749,1.048,0.728,1.304,0.957,0.426,0.742,0.698,��쓌,4.9,��
2019/08/31,11:50,0.752,1.051,0.730,1.304,0.957,0.426,0.743,0.699,��쓌,5.6,��
2019/08/31,12:00,0.750,1.052,0.729,1.302,0.959,0.427,0.741,0.698,��쓌,5.1,��
2019/08/31,12:10,0.753,1.054,0.730,1.305,0.956,0.427,0.741,0.698,��쓌,6.6,��
2019/08/31,12:20,0.750,1.054,0.731,1.306,0.959,0.427,0.742,0.698,-,CALM,��
2019/08/31,12:30,0.751,1.055,0.732,1.306,0.958,0.427,0.742,0.699,�쓌,5.6,��
2019/08/31,12:40,0.749,1.057,0.730,1.305,0.959,0.427,0.741,0.699,��쓌,6.1,��
2019/08/31,12:50,0.751,1.055,0.733,1.305,0.960,0.426,0.745,0.698,��쓌,5.7,��
2019/08/31,13:00,0.750,1.055,0.730,1.305,0.961,0.427,0.742,0.698,��쓌,5.4,��
2019/08/31,13:10,0.751,1.054,0.731,1.305,0.959,0.427,0.742,0.698,��쓌,6.2,��
2019/08/31,13:20,0.750,1.053,0.732,1.308,0.962,0.428,0.741,0.698,��쓌,6.2,��
2019/08/31,13:30,0.753,1.052,0.731,1.305,0.961,0.428,0.742,0.699,��쓌,5.5,��
2019/08/31,13:40,0.753,1.054,0.731,1.306,0.961,0.428,0.740,0.698,��쓌,5.9,��
2019/08/31,13:50,0.752,1.056,0.734,1.307,0.962,0.428,0.743,0.700,��쓌,5.4,��
2019/08/31,14:00,0.752,1.054,0.733,1.308,0.963,0.426,0.742,0.700,��쓌,6.9,��
2019/08/31,14:10,0.752,1.054,0.732,1.307,0.964,0.426,0.743,0.700,��쓌,6.0,��
2019/08/31,14:20,0.753,1.056,0.732,1.307,0.964,0.426,0.742,0.698,��쓌,7.0,��
2019/08/31,14:30,0.752,1.057,0.732,1.307,0.966,0.427,0.743,0.698,��쓌,7.2,��
2019/08/31,14:40,0.752,1.058,0.733,1.306,0.963,0.426,0.743,0.699,��,7.0,��
2019/08/31,14:50,0.754,1.056,0.732,1.307,0.963,0.426,0.741,0.699,��,6.5,��
2019/08/31,15:00,0.752,1.056,0.734,1.304,0.963,0.426,0.741,0.699,��쓌,5.7,��
2019/08/31,15:10,0.753,1.059,0.734,1.307,0.964,0.427,0.742,0.698,��쓌,7.0,��
2019/08/31,15:20,0.754,1.056,0.731,1.308,0.965,0.426,0.742,0.698,��쓌,6.6,��
2019/08/31,15:30,0.753,1.059,0.733,1.307,0.968,0.426,0.743,0.698,��쓌,6.6,��
2019/08/31,15:40,0.754,1.057,0.733,1.307,0.967,0.426,0.743,0.700,��쓌,7.0,��
2019/08/31,15:50,0.753,1.059,0.733,1.306,0.965,0.428,0.741,0.700,��쓌,7.1,��
2019/08/31,16:00,0.753,1.061,0.734,1.308,0.964,0.427,0.742,0.698,��쓌,8.1,��
2019/08/31,16:10,0.753,1.060,0.735,1.308,0.964,0.427,0.743,0.698,��쓌,7.4,��
2019/08/31,16:20,0.752,1.061,0.735,1.309,0.967,0.427,0.742,0.697,��쓌,8.4,��
2019/08/31,16:30,0.753,1.062,0.733,1.307,0.966,0.427,0.742,0.698,��쓌,8.0,��
2019/08/31,16:40,0.752,1.063,0.732,1.308,0.964,0.428,0.742,0.699,��쓌,8.3,��
2019/08/31,16:50,0.753,1.062,0.733,1.309,0.963,0.426,0.740,0.698,��,6.7,��
2019/08/31,17:00,0.753,1.061,0.735,1.309,0.967,0.426,0.742,0.700,��쓌,5.8,��
2019/08/31,17:10,0.753,1.065,0.732,1.308,0.968,0.428,0.741,0.700,��쓌,7.2,��
2019/08/31,17:20,0.753,1.062,0.734,1.308,0.967,0.428,0.741,0.698,��쓌,8.3,��
2019/08/31,17:30,0.751,1.062,0.733,1.308,0.967,0.430,0.742,0.698,��쓌,6.9,��
2019/08/31,17:40,0.752,1.061,0.734,1.310,0.968,0.428,0.741,0.699,��쓌,8.0,��
2019/08/31,17:50,0.752,1.062,0.733,1.308,0.968,0.428,0.740,0.699,��,7.8,��
2019/08/31,18:00,0.753,1.063,0.733,1.308,0.970,0.429,0.740,0.697,��,6.3,��
2019/08/31,18:10,0.753,1.064,0.735,1.310,0.969,0.429,0.743,0.699,��,7.0,��
2019/08/31,18:20,0.752,1.065,0.738,1.311,0.969,0.431,0.744,0.699,��,6.7,��
2019/08/31,18:30,0.754,1.064,0.736,1.312,0.969,0.429,0.742,0.698,��,5.9,��
2019/08/31,18:40,0.753,1.066,0.735,1.314,0.967,0.431,0.741,0.700,��,6.7,��
2019/08/31,18:50,0.752,1.067,0.735,1.310,0.965,0.430,0.742,0.699,��,5.3,��
2019/08/31,19:00,0.752,1.066,0.736,1.313,0.966,0.430,0.741,0.701,��,4.8,��
2019/08/31,19:10,0.752,1.065,0.738,1.311,0.967,0.430,0.742,0.698,��,4.6,��
2019/08/31,19:20,0.752,1.065,0.736,1.310,0.966,0.430,0.741,0.706,��쐼,3.5,��
2019/08/31,19:30,0.752,1.065,0.735,1.312,0.968,0.431,0.743,0.700,�쐼,2.8,��
2019/08/31,19:40,0.752,1.064,0.737,1.311,0.967,0.430,0.741,0.700,��쐼,2.9,��
2019/08/31,19:50,0.753,1.064,0.737,1.310,0.966,0.429,0.741,0.700,�쐼,1.9,��
2019/08/31,20:00,0.753,1.064,0.735,1.312,0.968,0.429,0.742,0.700,��,2.5,��
2019/08/31,20:10,0.754,1.062,0.736,1.313,0.965,0.430,0.742,0.700,���k��,2.0,��
2019/08/31,20:20,0.753,1.064,0.735,1.311,0.969,0.430,0.741,0.700,�k��,2.0,��
2019/08/31,20:30,0.754,1.064,0.735,1.314,0.968,0.430,0.742,0.700,�k��,2.6,��
2019/08/31,20:40,0.755,1.064,0.738,1.313,0.967,0.430,0.743,0.701,�k��,2.8,��
2019/08/31,20:50,0.755,1.065,0.737,1.314,0.969,0.430,0.743,0.700,�k��,3.0,��
2019/08/31,21:00,0.754,1.065,0.735,1.314,0.968,0.431,0.742,0.700,�k��,3.0,��
2019/08/31,21:10,0.756,1.064,0.737,1.314,0.969,0.430,0.743,0.701,�k��,4.1,��
2019/08/31,21:20,0.756,1.064,0.738,1.313,0.969,0.430,0.743,0.700,�k�k��,3.4,��
2019/08/31,21:30,0.753,1.065,0.738,1.313,0.967,0.430,0.742,0.702,�k��,3.1,��
2019/08/31,21:40,0.755,1.065,0.737,1.314,0.971,0.431,0.743,0.700,�k��,2.3,��
2019/08/31,21:50,0.754,1.062,0.736,1.314,0.969,0.430,0.742,0.699,�k��,2.6,��
2019/08/31,22:00,0.756,1.064,0.739,1.314,0.969,0.430,0.742,0.701,�k��,3.1,��
2019/08/31,22:10,0.754,1.065,0.737,1.313,0.970,0.429,0.741,0.700,�k��,3.2,��
2019/08/31,22:20,0.755,1.064,0.738,1.313,0.968,0.429,0.742,0.701,�k��,3.1,��
2019/08/31,22:30,0.755,1.065,0.737,1.312,0.970,0.430,0.742,0.701,�k��,2.5,��
2019/08/31,22:40,0.757,1.064,0.737,1.312,0.967,0.429,0.742,0.701,�k��,2.5,��
2019/08/31,22:50,0.754,1.063,0.735,1.312,0.967,0.429,0.742,0.699,�k��,3.9,��
2019/08/31,23:00,0.755,1.063,0.737,1.315,0.969,0.430,0.741,0.699,�k��,4.5,��
2019/08/31,23:10,0.755,1.062,0.737,1.315,0.968,0.429,0.741,0.699,���k��,4.1,�L
2019/08/31,23:20,0.755,1.061,0.738,1.314,0.967,0.431,0.742,0.699,���k��,3.5,�L
2019/08/31,23:30,0.756,1.063,0.736,1.313,0.965,0.430,0.743,0.700,���k��,3.1,��
2019/08/31,23:40,0.754,1.062,0.738,1.313,0.968,0.428,0.740,0.700,���k��,4.0,��
2019/08/31,23:50,0.755,1.063,0.736,1.313,0.965,0.430,0.743,0.700,���k��,4.3,��
